QPF
0.00 0.00 0.00 0.01 0.02 0.02 0.01 0.01 0.01 0.03 0.03 0.03 0.03 0.03 0.02 0.02 0.02 0.02 0.02 0.01 0.01 0.01 0.01 0.02 0.03 0.04 0.04 0.04 0.03 0.03 0.02 0.03 0.02 0.02 0.02 0.01 0.01 0.01 0.01 0.03 0.03 0.02 0.02
0.00 0.00 0.00 0.00 0.01 0.02 0.02 0.01 0.01 0.02 0.03 0.03 0.02 0.02 0.02 0.02 0.01 0.01 0.01 0.01 0.01 0.00 0.01 0.03 0.03 0.04 0.04 0.03 0.03 0.03 0.03 0.04 0.03 0.03 0.03 0.03 0.03 0.03 0.03 0.03 0.03 0.02 0.02
0.00 0.00 0.00 0.00 0.01 0.01 0.02 0.02 0.01 0.02 0.03 0.03 0.02 0.02 0.01 0.01 0.01 0.01 0.01 0.01 0.01 0.01 0.01 0.02 0.03 0.04 0.05 0.04 0.03 0.03 0.03 0.04 0.04 0.03 0.04 0.04 0.04 0.05 0.04 0.02 0.03 0.02 0.02
0.00 0.00 0.00 0.00 0.00 0.01 0.01 0.03 0.02 0.02 0.02 0.02 0.01 0.01 0.01 0.01 0.01 0.01 0.01 0.01 0.00 0.00 0.01 0.01 0.01 0.02 0.03 0.04 0.04 0.03 0.04 0.05 0.05 0.04 0.03 0.03 0.04 0.05 0.04 0.03 0.04 0.04 0.03
0.00 0.01 0.00 0.01 0.00 0.01 0.01 0.03 0.03 0.03 0.02 0.01 0.01 0.00 0.00 0.00 0.00 0.01 0.01 0.01 0.00 0.00 0.00 0.00 0.00 0.01 0.02 0.03 0.03 0.03 0.04 0.06 0.06 0.06 0.04 0.04 0.05 0.05 0.04 0.03 0.04 0.07 0.07
0.00 0.00 0.01 0.01 0.01 0.01 0.01 0.03 0.03 0.03 0.02 0.01 0.01 0.01 0.00 0.00 0.00 0.00 0.01 0.01 0.01 0.00 0.00 0.00 0.00 0.01 0.01 0.02 0.02 0.03 0.03 0.04 0.05 0.06 0.06 0.06 0.08 0.05 0.04 0.03 0.03 0.04 0.07
0.00 0.01 0.01 0.01 0.01 0.01 0.01 0.02 0.03 0.04 0.02 0.01 0.01 0.01 0.00 0.00 0.00 0.00 0.01 0.01 0.00 0.00 0.00 0.00 0.00 0.00 0.01 0.01 0.02 0.03 0.04 0.04 0.04 0.05 0.04 0.05 0.07 0.05 0.04 0.05 0.04 0.03 0.03
0.00 0.01 0.02 0.02 0.02 0.02 0.01 0.01 0.02 0.02 0.02 0.01 0.01 0.00 0.00 0.00 0.00 0.00 0.01 0.01 0.00 0.00 0.00 0.00 0.00 0.00 0.00 0.01 0.01 0.02 0.02 0.01 0.02 0.02 0.04 0.05 0.05 0.05 0.05 0.05 0.06 0.05 0.04
0.00 0.01 0.02 0.02 0.01 0.01 0.00 0.00 0.01 0.01 0.01 0.01 0.01 0.00 0.00 0.00 0.00 0.00 0.00 0.00 0.00 0.00 0.00 0.00 0.00 0.00 0.00 0.01 0.01 0.01 0.01 0.01 0.01 0.02 0.02 0.04 0.04 0.05 0.04 0.04 0.06 0.07 0.06
0.01 0.01 0.01 0.01 0.00 0.01 0.01 0.01 0.01 0.01 0.02 0.02 0.01 0.01 0.01 0.00 0.00 0.00 0.00 0.00 0.00 0.00 0.00 0.00 0.00 0.00 0.00 0.01 0.01 0.02 0.02 0.02 0.02 0.02 0.02 0.03 0.03 0.04 0.03 0.04 0.04 0.05 0.06
0.02 0.01 0.01 0.01 0.01 0.01 0.01 0.01 0.01 0.01 0.02 0.01 0.01 0.01 0.01 0.01 0.01 0.01 0.01 0.00 0.00 0.00 0.00 0.00 0.00 0.00 0.00 0.00 0.02 0.02 0.02 0.03 0.03 0.02 0.01 0.02 0.02 0.02 0.02 0.02 0.03 0.04 0.04
0.04 0.02 0.02 0.01 0.02 0.01 0.01 0.02 0.02 0.01 0.01 0.01 0.01 0.01 0.02 0.02 0.01 0.01 0.00 0.00 0.00 0.00 0.00 0.00 0.00 0.00 0.00 0.01 0.01 0.01 0.02 0.03 0.02 0.01 0.01 0.01 0.01 0.01 0.02 0.02 0.03 0.03 0.03
0.04 0.03 0.01 0.01 0.02 0.01 0.01 0.01 0.01 0.01 0.01 0.01 0.01 0.01 0.01 0.01 0.01 0.01 0.01 0.00 0.00 0.00 0.00 0.00 0.01 0.01 0.00 0.01 0.01 0.01 0.02 0.02 0.02 0.02 0.01 0.01 0.01 0.01 0.01 0.02 0.02 0.02 0.02
0.03 0.02 0.01 0.01 0.01 0.01 0.01 0.01 0.00 0.00 0.00 0.01 0.01 0.01 0.01 0.01 0.01 0.01 0.01 0.01 0.01 0.00 0.00 0.00 0.01 0.01 0.01 0.01 0.01 0.01 0.02 0.02 0.03 0.02 0.02 0.01 0.01 0.01 0.02 0.03 0.03 0.03 0.03
0.01 0.01 0.01 0.00 0.00 0.00 0.00 0.00 0.00 0.00 0.01 0.01 0.01 0.01 0.02 0.01 0.01 0.01 0.01 0.01 0.01 0.01 0.00 0.01 0.01 0.01 0.01 0.01 0.01 0.01 0.02 0.02 0.02 0.02 0.02 0.01 0.01 0.01 0.03 0.03 0.02 0.02 0.03
0.01 0.01 0.00 0.00 0.00 0.00 0.00 0.00 0.00 0.01 0.01 0.01 0.01 0.01 0.01 0.02 0.02 0.02 0.01 0.01 0.01 0.01 0.01 0.00 0.01 0.01 0.01 0.02 0.02 0.02 0.02 0.02 0.02 0.01 0.01 0.00 0.00 0.01 0.03 0.03 0.03 0.03 0.02
0.00 0.00 0.00 0.00 0.00 0.00 0.00 0.00 0.00 0.01 0.01 0.01 0.01 0.01 0.01 0.02 0.03 0.02 0.02 0.02 0.02 0.01 0.01 0.00 0.01 0.02 0.02 0.02 0.03 0.03 0.01 0.02 0.02 0.02 0.01 0.00 0.00 0.01 0.01 0.03 0.04 0.04 0.03
0.00 0.00 0.00 0.00 0.00 0.00 0.00 0.00 0.00 0.01 0.01 0.01 0.01 0.01 0.01 0.01 0.01 0.02 0.02 0.03 0.02 0.02 0.01 0.01 0.01 0.02 0.02 0.03 0.03 0.03 0.03 0.02 0.03 0.03 0.02 0.00 0.00 0.01 0.01 0.02 0.03 0.04 0.04
0.00 0.01 0.00 0.00 0.00 0.00 0.00 0.00 0.00 0.01 0.01 0.01 0.01 0.01 0.01 0.01 0.01 0.01 0.02 0.03 0.03 0.03 0.02 0.02 0.02 0.02 0.02 0.02 0.03 0.03 0.02 0.03 0.03 0.03 0.02 0.01 0.01 0.01 0.02 0.02 0.02 0.03 0.04
0.01 0.01 0.00 0.00 0.00 0.00 0.00 0.00 0.01 0.01 0.01 0.01 0.01 0.00 0.00 0.01 0.01 0.01 0.02 0.02 0.03 0.02 0.02 0.03 0.02 0.02 0.03 0.03 0.03 0.02 0.02 0.03 0.04 0.03 0.02 0.01 0.01 0.01 0.01 0.01 0.02 0.02 0.02
0.01 0.00 0.00 0.00 0.00 0.00 0.01 0.01 0.01 0.00 0.00 0.00 0.01 0.00 0.00 0.00 0.01 0.01 0.02 0.01 0.02 0.02 0.02 0.01 0.02 0.03 0.03 0.02 0.02 0.02 0.02 0.03 0.05 0.03 0.02 0.01 0.01 0.01 0.01 0.01 0.02 0.02 0.01
0.00 0.00 0.00 0.00 0.00 0.00 0.00 0.00 0.00 0.00 0.00 0.00 0.00 0.00 0.00 0.00 0.01 0.01 0.02 0.01 0.01 0.01 0.01 0.01 0.01 0.03 0.02 0.02 0.02 0.02 0.03 0.04 0.04 0.02 0.01 0.01 0.01 0.01 0.01 0.01 0.02 0.01 0.01
0.00 0.00 0.00 0.00 0.00 0.00 0.00 0.00 0.00 0.00 0.00 0.00 0.00 0.00 0.00 0.00 0.01 0.01 0.01 0.01 0.00 0.00 0.00 0.00 0.01 0.02 0.01 0.01 0.02 0.03 0.03 0.03 0.02 0.01 0.01 0.01 0.01 0.01 0.02 0.02 0.02 0.01 0.01
0.00 0.00 0.00 0.00 0.00 0.00 0.00 0.00 0.00 0.00 0.00 0.00 0.00 0.00 0.00 0.00 0.01 0.01 0.01 0.01 0.01 0.00 0.00 0.00 0.01 0.02 0.02 0.02 0.01 0.01 0.01 0.01 0.02 0.02 0.02 0.02 0.01 0.02 0.02 0.02 0.02 0.01 0.01
0.00 0.00 0.00 0.00 0.00 0.00 0.00 0.00 0.00 0.00 0.00 0.00 0.00 0.00 0.00 0.00 0.01 0.01 0.01 0.01 0.01 0.00 0.00 0.01 0.01 0.02 0.02 0.02 0.01 0.01 0.01 0.01 0.01 0.02 0.03 0.02 0.02 0.02 0.03 0.03 0.03 0.02 0.01
0.00 0.00 0.00 0.00 0.00 0.00 0.00 0.00 0.00 0.00 0.00 0.00 0.00 0.00 0.00 0.00 0.00 0.01 0.01 0.01 0.01 0.01 0.00 0.01 0.01 0.01 0.01 0.02 0.02 0.01 0.01 0.01 0.02 0.02 0.02 0.02 0.01 0.01 0.03 0.04 0.03 0.02 0.01
MSLP
1017.45 1017.55 1017.65 1017.73 1017.78 1017.78 1017.75 1017.70 1017.66 1017.65 1017.68 1017.75 1017.84 1017.93 1018.01 1018.03 1018.00 1017.92 1017.80 1017.66 1017.56 1017.51 1017.54 1017.67 1017.87 1018.14 1018.42 1018.70 1018.94 1019.13 1019.29 1019.44 1019.60 1019.82 1020.10 1020.44 1020.83 1021.21 1021.52 1021.70 1021.71 1021.51 1021.11
1017.62 1017.76 1017.90 1018.01 1018.07 1018.07 1018.03 1017.98 1017.94 1017.94 1017.99 1018.09 1018.21 1018.34 1018.43 1018.45 1018.39 1018.26 1018.07 1017.86 1017.68 1017.57 1017.56 1017.65 1017.85 1018.11 1018.41 1018.70 1018.95 1019.15 1019.31 1019.44 1019.59 1019.80 1020.07 1020.43 1020.86 1021.31 1021.73 1022.08 1022.28 1022.32 1022.19
1017.74 1017.94 1018.13 1018.28 1018.36 1018.37 1018.32 1018.26 1018.20 1018.19 1018.25 1018.35 1018.49 1018.63 1018.73 1018.75 1018.67 1018.51 1018.28 1018.03 1017.81 1017.65 1017.60 1017.67 1017.85 1018.10 1018.39 1018.68 1018.93 1019.13 1019.28 1019.41 1019.55 1019.74 1020.01 1020.37 1020.81 1021.31 1021.81 1022.28 1022.64 1022.89 1022.97
1017.83 1018.08 1018.32 1018.52 1018.62 1018.64 1018.59 1018.51 1018.43 1018.40 1018.43 1018.53 1018.66 1018.80 1018.90 1018.93 1018.85 1018.69 1018.46 1018.20 1017.96 1017.79 1017.72 1017.76 1017.91 1018.15 1018.41 1018.68 1018.92 1019.11 1019.25 1019.37 1019.50 1019.68 1019.94 1020.29 1020.73 1021.24 1021.78 1022.32 1022.80 1023.18 1023.45
1017.90 1018.20 1018.49 1018.72 1018.85 1018.88 1018.83 1018.72 1018.62 1018.55 1018.55 1018.62 1018.73 1018.86 1018.97 1019.00 1018.95 1018.81 1018.61 1018.37 1018.15 1017.99 1017.91 1017.94 1018.06 1018.26 1018.50 1018.73 1018.94 1019.11 1019.25 1019.36 1019.48 1019.65 1019.89 1020.22 1020.63 1021.13 1021.67 1022.23 1022.76 1023.24 1023.63
1017.96 1018.30 1018.62 1018.88 1019.04 1019.08 1019.01 1018.89 1018.75 1018.65 1018.61 1018.64 1018.73 1018.85 1018.95 1019.01 1018.99 1018.90 1018.75 1018.56 1018.38 1018.24 1018.17 1018.19 1018.28 1018.44 1018.63 1018.83 1019.00 1019.15 1019.27 1019.37 1019.49 1019.64 1019.86 1020.16 1020.53 1020.99 1021.50 1022.04 1022.59 1023.11 1023.58
1018.03 1018.38 1018.73 1019.00 1019.17 1019.21 1019.14 1019.00 1018.84 1018.71 1018.63 1018.63 1018.69 1018.79 1018.90 1018.98 1019.00 1018.97 1018.88 1018.75 1018.62 1018.52 1018.47 1018.48 1018.54 1018.66 1018.80 1018.95 1019.08 1019.20 1019.30 1019.39 1019.50 1019.64 1019.84 1020.10 1020.43 1020.83 1021.29 1021.79 1022.32 1022.86 1023.37
1018.10 1018.44 1018.79 1019.06 1019.22 1019.27 1019.20 1019.05 1018.88 1018.73 1018.63 1018.60 1018.64 1018.72 1018.83 1018.93 1018.99 1019.00 1018.98 1018.91 1018.84 1018.78 1018.75 1018.75 1018.80 1018.87 1018.97 1019.07 1019.16 1019.25 1019.33 1019.41 1019.51 1019.64 1019.81 1020.04 1020.32 1020.66 1021.07 1021.52 1022.02 1022.55 1023.09
1018.15 1018.48 1018.79 1019.05 1019.20 1019.24 1019.17 1019.03 1018.86 1018.71 1018.60 1018.56 1018.58 1018.65 1018.76 1018.86 1018.95 1019.00 1019.02 1019.01 1018.99 1018.97 1018.96 1018.97 1018.99 1019.04 1019.10 1019.16 1019.22 1019.29 1019.35 1019.43 1019.52 1019.64 1019.79 1019.98 1020.22 1020.50 1020.85 1021.26 1021.72 1022.24 1022.79
1018.18 1018.46 1018.74 1018.95 1019.08 1019.11 1019.05 1018.93 1018.78 1018.65 1018.55 1018.51 1018.52 1018.58 1018.68 1018.78 1018.87 1018.94 1018.99 1019.02 1019.03 1019.04 1019.05 1019.07 1019.10 1019.13 1019.17 1019.21 1019.26 1019.31 1019.37 1019.44 1019.53 1019.64 1019.77 1019.94 1020.14 1020.38 1020.68 1021.05 1021.48 1021.98 1022.55
1018.17 1018.39 1018.60 1018.77 1018.87 1018.89 1018.84 1018.75 1018.64 1018.54 1018.47 1018.44 1018.46 1018.51 1018.58 1018.66 1018.74 1018.80 1018.86 1018.90 1018.94 1018.97 1019.01 1019.05 1019.08 1019.13 1019.17 1019.21 1019.26 1019.32 1019.38 1019.46 1019.56 1019.67 1019.79 1019.94 1020.11 1020.33 1020.59 1020.92 1021.33 1021.82 1022.39
1018.10 1018.26 1018.41 1018.52 1018.59 1018.60 1018.57 1018.51 1018.45 1018.40 1018.37 1018.36 1018.38 1018.42 1018.47 1018.52 1018.56 1018.61 1018.65 1018.69 1018.73 1018.79 1018.84 1018.91 1018.97 1019.04 1019.11 1019.18 1019.25 1019.33 1019.41 1019.51 1019.62 1019.73 1019.86 1020.00 1020.16 1020.36 1020.60 1020.91 1021.30 1021.77 1022.32
1018.00 1018.10 1018.19 1018.25 1018.28 1018.29 1018.28 1018.26 1018.25 1018.25 1018.26 1018.29 1018.31 1018.34 1018.35 1018.36 1018.37 1018.37 1018.39 1018.41 1018.46 1018.52 1018.60 1018.70 1018.80 1018.91 1019.01 1019.12 1019.23 1019.34 1019.45 1019.58 1019.70 1019.84 1019.98 1020.13 1020.29 1020.48 1020.71 1021.00 1021.37 1021.82 1022.35
1017.91 1017.96 1018.00 1018.02 1018.02 1018.03 1018.04 1018.06 1018.10 1018.15 1018.20 1018.25 1018.28 1018.29 1018.27 1018.24 1018.20 1018.16 1018.13 1018.14 1018.17 1018.24 1018.34 1018.47 1018.61 1018.75 1018.90 1019.05 1019.19 1019.34 1019.49 1019.64 1019.80 1019.96 1020.12 1020.29 1020.47 1020.67 1020.90 1021.18 1021.53 1021.95 1022.44
1017.86 1017.90 1017.91 1017.90 1017.89 1017.89 1017.92 1017.98 1018.06 1018.15 1018.23 1018.29 1018.32 1018.31 1018.27 1018.19 1018.10 1018.02 1017.96 1017.93 1017.96 1018.03 1018.14 1018.28 1018.45 1018.62 1018.80 1018.98 1019.15 1019.33 1019.51 1019.69 1019.88 1020.07 1020.26 1020.46 1020.66 1020.88 1021.13 1021.41 1021.74 1022.13 1022.58
1017.91 1017.95 1017.96 1017.94 1017.94 1017.95 1018.00 1018.08 1018.19 1018.30 1018.40 1018.46 1018.48 1018.45 1018.37 1018.26 1018.13 1018.01 1017.91 1017.87 1017.88 1017.94 1018.04 1018.19 1018.36 1018.54 1018.73 1018.91 1019.09 1019.28 1019.47 1019.67 1019.89 1020.11 1020.34 1020.57 1020.82 1021.07 1021.34 1021.64 1021.96 1022.32 1022.72
1018.07 1018.15 1018.18 1018.19 1018.19 1018.23 1018.29 1018.38 1018.50 1018.62 1018.72 1018.78 1018.78 1018.72 1018.61 1018.47 1018.31 1018.16 1018.04 1017.97 1017.96 1018.01 1018.10 1018.23 1018.38 1018.53 1018.69 1018.86 1019.02 1019.19 1019.38 1019.58 1019.81 1020.06 1020.33 1020.61 1020.90 1021.20 1021.51 1021.82 1022.15 1022.50 1022.86
1018.35 1018.49 1018.57 1018.61 1018.65 1018.70 1018.78 1018.88 1019.00 1019.11 1019.19 1019.23 1019.21 1019.12 1018.99 1018.82 1018.64 1018.48 1018.34 1018.26 1018.23 1018.25 1018.31 1018.40 1018.50 1018.61 1018.72 1018.82 1018.94 1019.07 1019.23 1019.42 1019.65 1019.92 1020.22 1020.55 1020.89 1021.24 1021.59 1021.95 1022.29 1022.64 1022.98
1018.70 1018.92 1019.06 1019.16 1019.24 1019.32 1019.41 1019.51 1019.62 1019.71 1019.77 1019.78 1019.73 1019.62 1019.47 1019.28 1019.10 1018.92 1018.79 1018.69 1018.64 1018.63 1018.65 1018.69 1018.73 1018.76 1018.79 1018.83 1018.87 1018.94 1019.05 1019.21 1019.43 1019.71 1020.04 1020.41 1020.80 1021.21 1021.61 1022.00 1022.38 1022.74 1023.07
1019.07 1019.36 1019.58 1019.73 1019.86 1019.97 1020.08 1020.19 1020.28 1020.35 1020.38 1020.36 1020.28 1020.15 1019.99 1019.80 1019.61 1019.45 1019.31 1019.21 1019.15 1019.11 1019.09 1019.07 1019.03 1018.99 1018.93 1018.87 1018.84 1018.83 1018.89 1019.01 1019.21 1019.49 1019.84 1020.24 1020.68 1021.13 1021.58 1022.02 1022.43 1022.80 1023.15
1019.37 1019.74 1020.03 1020.25 1020.42 1020.57 1020.70 1020.81 1020.89 1020.95 1020.95 1020.91 1020.81 1020.67 1020.50 1020.32 1020.14 1019.99 1019.86 1019.76 1019.69 1019.62 1019.56 1019.48 1019.38 1019.26 1019.12 1018.98 1018.86 1018.79 1018.78 1018.87 1019.04 1019.31 1019.66 1020.09 1020.55 1021.04 1021.53 1022.00 1022.45 1022.85 1023.21
1019.56 1020.00 1020.34 1020.62 1020.85 1021.04 1021.19 1021.32 1021.40 1021.44 1021.44 1021.38 1021.28 1021.14 1020.97 1020.80 1020.63 1020.49 1020.37 1020.28 1020.20 1020.12 1020.02 1019.90 1019.74 1019.55 1019.35 1019.14 1018.95 1018.82 1018.76 1018.81 1018.95 1019.21 1019.55 1019.98 1020.46 1020.97 1021.48 1021.98 1022.45 1022.87 1023.26
1019.62 1020.10 1020.50 1020.83 1021.10 1021.33 1021.52 1021.66 1021.76 1021.81 1021.81 1021.76 1021.66 1021.52 1021.37 1021.21 1021.06 1020.93 1020.82 1020.73 1020.64 1020.55 1020.43 1020.27 1020.07 1019.84 1019.59 1019.33 1019.10 1018.92 1018.83 1018.84 1018.95 1019.18 1019.51 1019.93 1020.41 1020.92 1021.44 1021.94 1022.42 1022.86 1023.26
1019.56 1020.07 1020.50 1020.87 1021.19 1021.46 1021.68 1021.86 1021.99 1022.06 1022.07 1022.04 1021.95 1021.83 1021.69 1021.55 1021.41 1021.29 1021.19 1021.09 1020.99 1020.89 1020.75 1020.57 1020.35 1020.09 1019.81 1019.53 1019.27 1019.07 1018.94 1018.92 1019.01 1019.21 1019.51 1019.91 1020.36 1020.85 1021.36 1021.86 1022.34 1022.79 1023.20
1019.41 1019.93 1020.39 1020.79 1021.15 1021.46 1021.72 1021.94 1022.10 1022.21 1022.25 1022.24 1022.18 1022.08 1021.96 1021.83 1021.70 1021.58 1021.47 1021.36 1021.25 1021.13 1020.97 1020.78 1020.55 1020.28 1019.99 1019.70 1019.43 1019.21 1019.06 1019.02 1019.07 1019.24 1019.50 1019.86 1020.27 1020.73 1021.22 1021.70 1022.17 1022.61 1023.03
1019.23 1019.76 1020.23 1020.66 1021.04 1021.39 1021.69 1021.94 1022.15 1022.29 1022.37 1022.39 1022.36 1022.28 1022.18 1022.05 1021.92 1021.79 1021.67 1021.55 1021.42 1021.28 1021.11 1020.90 1020.66 1020.39 1020.10 1019.80 1019.53 1019.30 1019.14 1019.06 1019.09 1019.21 1019.43 1019.73 1020.09 1020.51 1020.96 1021.41 1021.86 1022.29 1022.71
Thickness
5747 5746 5744 5741 5738 5736 5733 5730 5728 5726 5723 5720 5718 5716 5715 5716 5715 5715 5715 5715 5715 5714 5714 5713 5711 5710 5708 5706 5705 5703 5701 5700 5700 5697 5694 5695 5697 5696 5695 5695 5694 5693 5693
5746 5744 5742 5739 5736 5733 5731 5729 5726 5724 5722 5720 5719 5717 5716 5715 5714 5713 5713 5713 5712 5712 5712 5711 5709 5707 5705 5704 5703 5700 5697 5697 5698 5693 5688 5683 5684 5689 5692 5691 5690 5689 5689
5745 5743 5741 5738 5735 5731 5729 5728 5726 5723 5721 5720 5718 5716 5713 5712 5710 5709 5709 5710 5710 5710 5709 5709 5707 5706 5704 5701 5700 5699 5695 5692 5694 5695 5689 5681 5676 5679 5684 5686 5686 5685 5685
5747 5743 5740 5737 5734 5732 5731 5728 5725 5723 5721 5719 5715 5711 5707 5704 5706 5707 5707 5708 5708 5707 5707 5706 5705 5704 5702 5701 5699 5698 5696 5693 5690 5691 5692 5690 5685 5678 5674 5679 5682 5682 5682
5746 5742 5740 5737 5735 5732 5729 5727 5724 5721 5719 5717 5714 5711 5708 5706 5707 5706 5705 5704 5705 5705 5704 5704 5703 5701 5700 5699 5698 5697 5695 5693 5690 5688 5688 5687 5686 5684 5676 5671 5674 5676 5678
5745 5742 5739 5736 5732 5730 5727 5725 5721 5718 5717 5716 5714 5710 5707 5705 5704 5703 5702 5701 5701 5702 5702 5701 5700 5700 5699 5698 5696 5695 5694 5692 5691 5689 5687 5684 5682 5680 5678 5672 5670 5670 5672
5743 5738 5735 5731 5728 5726 5724 5722 5719 5716 5715 5714 5712 5710 5708 5706 5703 5702 5700 5699 5698 5698 5699 5699 5698 5697 5696 5696 5695 5693 5691 5691 5689 5687 5686 5685 5684 5684 5681 5675 5671 5669 5669
5742 5737 5733 5729 5726 5723 5722 5720 5717 5715 5713 5712 5711 5710 5708 5705 5703 5702 5701 5699 5698 5697 5697 5696 5695 5694 5694 5693 5692 5690 5689 5689 5688 5687 5685 5684 5684 5683 5681 5676 5671 5666 5665
5739 5736 5733 5729 5725 5723 5720 5719 5716 5714 5712 5711 5710 5708 5707 5705 5702 5701 5701 5699 5698 5697 5695 5694 5692 5691 5691 5690 5689 5687 5686 5686 5685 5684 5683 5681 5681 5681 5679 5678 5674 5667 5660
5738 5735 5731 5728 5726 5723 5720 5718 5716 5713 5711 5710 5708 5707 5705 5703 5702 5700 5698 5697 5696 5694 5692 5691 5690 5688 5687 5687 5685 5684 5683 5682 5681 5680 5679 5678 5677 5677 5676 5675 5673 5671 5665
5735 5733 5730 5728 5725 5722 5719 5716 5714 5712 5710 5708 5707 5704 5702 5701 5700 5698 5696 5695 5693 5692 5690 5689 5687 5685 5684 5683 5682 5680 5680 5678 5677 5677 5676 5674 5674 5672 5672 5671 5669 5667 5665
5734 5731 5728 5725 5722 5719 5717 5714 5712 5710 5708 5707 5705 5703 5701 5699 5697 5695 5694 5693 5691 5690 5688 5686 5684 5683 5681 5680 5679 5677 5676 5675 5673 5673 5671 5670 5670 5668 5667 5666 5665 5663 5662
5730 5728 5724 5721 5718 5716 5714 5712 5710 5708 5707 5705 5703 5701 5698 5696 5693 5692 5692 5690 5688 5686 5685 5683 5681 5679 5678 5677 5676 5674 5673 5671 5670 5669 5668 5666 5665 5663 5662 5661 5660 5659 5659
5725 5722 5718 5717 5715 5713 5711 5710 5707 5706 5705 5702 5700 5697 5696 5693 5691 5690 5688 5686 5685 5683 5681 5680 5678 5676 5674 5673 5671 5670 5669 5667 5666 5665 5664 5663 5661 5659 5658 5657 5655 5654 5652
5720 5718 5715 5713 5711 5709 5708 5707 5704 5703 5701 5698 5695 5694 5693 5691 5689 5687 5685 5683 5681 5679 5677 5675 5673 5672 5669 5668 5666 5665 5664 5662 5661 5660 5659 5658 5657 5655 5654 5653 5650 5648 5645
5716 5715 5713 5710 5707 5706 5704 5702 5701 5700 5697 5694 5691 5690 5689 5687 5684 5682 5681 5679 5676 5674 5672 5670 5668 5666 5665 5663 5662 5659 5658 5657 5655 5654 5653 5652 5650 5649 5648 5647 5646 5644 5640
5711 5710 5709 5706 5704 5703 5701 5698 5697 5696 5693 5690 5688 5686 5684 5681 5680 5678 5675 5673 5671 5669 5667 5665 5663 5660 5659 5658 5656 5654 5652 5651 5650 5649 5647 5646 5644 5642 5640 5640 5639 5638 5636
5708 5706 5705 5703 5702 5701 5698 5696 5694 5691 5688 5685 5683 5681 5679 5676 5674 5672 5670 5668 5666 5664 5662 5660 5658 5656 5654 5653 5651 5649 5647 5646 5645 5644 5642 5640 5638 5636 5634 5633 5631 5630 5628
5706 5704 5702 5700 5699 5697 5695 5691 5689 5686 5683 5680 5679 5678 5675 5672 5669 5666 5664 5663 5661 5659 5657 5655 5653 5650 5648 5647 5646 5644 5641 5640 5639 5638 5637 5635 5632 5631 5629 5627 5624 5622 5621
5701 5699 5698 5695 5692 5690 5689 5685 5682 5679 5677 5676 5676 5675 5672 5668 5665 5662 5660 5658 5656 5654 5652 5650 5648 5646 5643 5642 5640 5638 5635 5633 5632 5631 5631 5629 5627 5625 5623 5620 5617 5614 5613
5695 5693 5690 5686 5684 5684 5682 5678 5675 5674 5674 5673 5672 5670 5668 5664 5661 5658 5656 5653 5651 5648 5646 5645 5643 5641 5639 5637 5634 5632 5629 5627 5625 5624 5623 5622 5621 5619 5617 5614 5611 5609 5608
5687 5685 5682 5679 5678 5678 5675 5672 5670 5670 5670 5669 5666 5664 5663 5660 5658 5653 5650 5649 5646 5642 5640 5638 5636 5635 5634 5631 5628 5626 5623 5622 5619 5618 5617 5616 5614 5612 5610 5607 5605 5603 5601
5679 5678 5675 5672 5671 5671 5669 5665 5664 5665 5665 5663 5661 5659 5657 5655 5652 5648 5645 5643 5640 5637 5634 5632 5630 5629 5628 5626 5623 5621 5618 5616 5613 5612 5611 5609 5607 5604 5602 5600 5598 5596 5592
5673 5671 5669 5666 5664 5664 5663 5661 5660 5659 5658 5656 5654 5653 5650 5647 5645 5643 5641 5637 5634 5632 5629 5627 5625 5623 5621 5619 5617 5614 5611 5609 5606 5605 5604 5602 5599 5597 5594 5592 5590 5588 5586
5667 5665 5662 5660 5659 5658 5657 5656 5655 5654 5651 5649 5647 5645 5643 5640 5638 5635 5633 5632 5630 5628 5625 5622 5620 5617 5614 5614 5612 5608 5605 5603 5600 5597 5595 5592 5590 5588 5586 5584 5583 5581 5579
5662 5660 5657 5655 5654 5653 5651 5650 5650 5648 5645 5642 5640 5638 5635 5633 5630 5627 5625 5624 5623 5622 5620 5618 5615 5613 5611 5609 5606 5603 5600 5597 5594 5590 5587 5586 5584 5583 5581 5579 5577 5575 5573